EHI
3 7 15 21 22 20 19 18 18 19 16 13 11 9 7 6 5 4 3 3 3 1 0 0 0 0 0 0 0 0 0 0 0 0 0 0 0 0 0 0 0 0 0
4 8 16 23 24 23 22 21 21 20 16 12 10 9 7 6 4 3 3 3 3 2 1 0 0 0 0 0 0 0 0 0 0 0 0 0 0 0 0 0 0 0 0
7 11 17 24 27 27 25 24 22 19 15 11 9 9 7 5 4 3 3 3 3 3 2 1 0 0 0 0 0 0 0 0 0 0 0 0 0 0 0 0 0 0 0
11 13 17 23 27 28 26 24 23 19 13 10 9 9 8 6 4 3 3 3 3 3 3 2 1 1 1 0 0 0 0 0 0 0 0 0 0 0 0 0 0 0 0
12 12 16 22 26 27 25 23 23 20 14 10 10 10 9 7 5 4 3 3 3 3 3 3 1 1 0 0 0 0 0 0 0 0 0 0 0 0 0 0 0 0 0
11 11 15 22 26 26 25 23 23 21 16 12 10 11 9 7 6 4 3 3 3 4 4 2 1 0 0 0 0 0 0 0 0 0 0 0 0 0 0 0 0 0 0
12 12 15 21 25 26 26 24 23 21 16 12 11 10 8 6 5 4 4 3 3 4 4 2 0 0 0 0 0 0 0 0 0 0 0 0 0 0 0 0 0 0 0
13 14 16 20 24 26 25 24 22 18 14 11 10 9 7 6 5 4 5 4 4 5 5 3 1 0 0 0 0 0 0 0 0 0 0 0 0 0 0 0 0 0 0
15 17 19 19 21 22 22 21 19 15 11 9 8 7 6 5 4 5 6 6 6 6 5 3 1 0 0 0 0 0 0 0 0 0 0 0 0 0 0 0 0 0 0
14 16 18 18 17 16 16 16 15 13 10 8 7 6 4 4 4 4 5 6 6 5 4 1 0 0 0 0 0 0 0 0 0 0 0 0 0 0 0 0 0 0 0
10 12 14 15 14 13 13 13 13 12 10 8 7 5 4 4 4 4 3 4 5 4 3 1 0 0 0 0 0 0 0 0 0 0 0 0 0 0 0 0 0 0 0
9 8 8 10 11 12 13 13 13 12 10 8 7 5 4 3 4 3 2 3 4 3 2 1 0 0 0 0 0 0 0 0 0 0 0 0 0 0 0 0 0 0 0
10 7 6 6 8 10 13 14 14 12 10 8 7 5 4 3 3 2 1 1 1 1 1 0 0 0 0 0 0 0 0 0 0 0 0 0 0 0 0 0 0 0 0
10 8 6 5 5 8 11 14 14 12 10 8 6 4 3 3 3 2 1 0 0 0 0 0 0 0 0 0 0 0 0 0 0 0 0 0 0 0 0 0 0 0 0
8 8 7 6 4 5 8 11 12 10 8 5 4 3 2 2 2 1 0 0 0 0 0 0 0 0 0 0 0 0 0 0 0 0 0 0 0 0 0 0 0 0 0
7 7 7 5 4 4 5 7 8 7 5 3 2 1 1 1 1 0 0 0 0 0 0 0 0 0 0 0 0 0 0 0 0 0 0 0 0 0 0 0 0 0 0
6 6 6 5 4 3 3 5 6 6 4 3 1 0 0 0 0 0 0 0 0 0 0 0 0 0 0 0 0 0 0 0 0 0 0 0 0 0 0 0 0 0 0
6 6 6 5 4 3 3 4 5 6 5 3 1 0 0 0 0 0 0 0 0 0 0 0 0 0 0 0 0 0 0 0 0 0 0 0 0 0 0 0 0 0 0
6 6 6 6 5 4 3 3 4 5 5 3 1 0 0 0 0 0 0 0 0 0 0 0 0 0 0 0 0 0 0 0 0 0 0 0 0 0 0 0 0 0 0
6 6 6 6 6 4 3 3 3 4 4 3 2 2 1 1 0 0 0 0 0 0 0 0 0 0 0 0 0 0 0 0 0 0 0 0 0 0 0 0 0 0 0
6 6 6 6 5 4 3 3 3 3 3 3 3 2 2 1 0 0 0 0 0 0 0 0 0 0 0 0 0 0 0 0 0 0 0 0 0 0 0 0 0 0 0
5 5 6 5 4 3 3 3 3 2 1 1 2 1 1 0 0 0 0 0 0 0 0 0 0 0 0 0 0 0 0 0 0 0 0 0 0 0 0 0 0 0 0
4 4 4 4 3 3 3 3 3 1 0 0 0 0 0 0 0 0 0 0 0 0 0 0 0 0 0 0 0 0 0 0 0 0 0 0 0 0 0 0 0 0 0
3 3 3 3 3 3 3 3 2 1 0 0 0 0 0 0 0 0 0 0 0 0 0 0 0 0 0 0 0 0 0 0 0 0 0 0 0 0 0 0 0 0 0
1 2 2 2 3 3 3 2 1 0 0 0 0 0 0 0 0 0 0 0 0 0 0 0 0 0 0 0 0 0 0 0 0 0 0 0 0 0 0 0 0 0 0
0 1 1 1 2 2 2 2 1 0 0 1 1 1 0 0 0 0 0 0 0 0 0 0 0 0 0 0 0 0 0 0 0 0 0 0 0 0 0 0 0 0 0
Wind_Speed
2 4 9 10 11 10 10 10 10 10 10 10 11 11 11 11 11 11 10 10 10 10 11 12 12 12 13 13 13 13 12 12 12 13 12 12 13 13 13 13 11 8 13
5 5 9 9 10 10 10 10 10 10 10 10 10 10 10 10 10 10 10 10 9 10 11 11 12 12 12 12 12 12 12 12 12 12 11 11 11 12 13 12 11 8 12
7 6 7 9 9 10 10 10 9 9 9 9 9 9 9 9 9 10 10 10 9 10 11 11 11 11 11 11 11 10 11 11 11 11 10 5 6 11 12 12 12 12 12
8 6 6 8 8 9 9 9 9 9 8 8 9 9 9 9 9 9 9 9 10 10 10 10 10 10 10 10 10 10 10 11 10 10 5 4 4 10 11 11 12 12 12
6 5 6 9 8 8 9 9 8 8 8 8 8 8 8 9 9 8 9 9 10 10 10 9 9 9 9 9 9 9 10 10 10 8 4 4 3 8 10 10 11 11 11
5 5 6 9 8 7 8 8 8 8 7 7 8 8 8 8 9 9 9 9 10 10 9 9 8 8 8 8 8 9 10 10 8 4 4 3 3 8 9 10 10 10 10
5 5 6 8 8 7 7 7 7 7 7 7 7 7 7 8 8 8 9 8 9 9 9 9 8 8 8 8 8 9 9 9 5 4 3 3 3 8 9 9 9 9 9
6 5 5 7 7 7 7 6 6 6 6 6 7 7 6 7 8 8 8 8 8 9 9 8 8 8 8 7 7 7 7 7 6 4 3 2 5 8 8 8 8 8 8
4 4 4 4 5 6 6 5 5 5 5 6 6 6 6 6 7 8 8 7 8 8 8 8 7 7 7 7 7 6 6 7 4 2 2 2 5 7 7 7 7 7 7
4 3 3 3 3 3 4 5 4 4 5 5 5 5 5 5 6 7 7 7 7 8 8 7 7 7 6 6 6 6 6 5 3 2 1 2 5 6 6 6 6 6 6
3 2 2 2 2 2 3 3 4 4 4 4 4 5 4 2 3 4 5 6 7 7 7 7 7 7 6 5 5 6 5 2 2 1 1 3 5 5 5 5 5 5 6
2 2 2 2 2 2 2 2 2 2 2 2 2 3 2 2 2 3 5 6 6 6 6 7 6 5 4 2 3 5 2 2 2 1 1 4 4 4 4 4 4 5 5
3 2 2 2 2 2 2 2 1 1 1 1 2 2 2 2 2 2 2 2 3 4 3 3 3 2 2 1 1 2 2 2 2 1 1 3 4 4 4 4 4 4 4
3 2 2 2 2 2 2 2 2 2 1 1 2 3 2 2 2 2 2 1 1 2 2 2 1 2 2 1 1 2 2 2 1 1 1 3 3 3 3 3 3 3 3
3 2 2 2 2 2 2 2 2 2 2 2 2 2 2 2 2 2 2 2 2 2 2 2 2 2 2 1 1 2 2 2 2 1 1 3 3 2 2 2 2 2 3
3 3 3 3 2 2 2 2 2 2 2 2 2 2 3 2 2 2 2 2 2 2 2 2 3 2 2 2 2 2 2 2 2 2 1 2 3 3 2 2 2 2 2
4 3 3 3 3 2 2 2 1 2 2 2 2 2 3 3 3 2 2 2 2 2 2 2 3 3 2 2 2 2 2 2 2 2 1 1 2 3 3 3 2 2 2
3 3 3 2 3 2 2 2 1 1 2 2 2 3 3 3 3 2 2 2 2 2 2 2 3 3 2 2 1 1 1 1 2 1 1 1 1 1 2 3 2 2 2
3 3 3 3 3 2 2 2 1 1 1 1 2 2 3 3 3 3 2 2 2 2 2 2 2 2 2 2 1 1 1 1 1 1 1 1 1 1 1 2 3 3 3
2 2 3 3 3 2 2 2 1 1 1 0 1 2 4 3 3 3 2 2 2 2 2 2 2 2 2 2 2 1 1 1 0 0 0 0 1 1 1 1 2 3 4
1 2 2 3 2 2 2 2 2 2 1 1 1 2 3 4 4 3 3 3 2 2 2 3 2 3 2 2 2 1 2 2 1 0 0 0 1 1 1 1 1 1 2
2 2 2 3 3 3 2 3 2 2 2 2 1 2 3 3 4 4 4 3 3 2 3 3 2 2 2 2 3 2 0 2 2 1 0 0 0 1 1 1 1 1 1
2 2 2 3 3 3 2 2 2 2 1 0 0 1 1 2 3 3 4 3 3 3 3 3 3 3 3 2 2 3 3 3 1 1 1 0 0 0 0 1 1 1 1
3 3 2 3 3 2 3 3 4 3 2 2 2 1 1 2 3 3 4 3 3 3 3 3 2 2 3 3 2 1 2 3 2 1 1 1 1 1 1 1 0 1 1
2 2 2 2 2 2 3 4 5 3 2 1 1 2 1 1 1 2 3 3 3 3 3 3 2 2 2 3 3 2 1 1 1 2 2 2 1 1 1 1 1 0 0
0 0 1 1 1 2 2 3 4 4 3 3 2 3 2 1 1 2 3 3 3 3 3 3 3 3 2 1 1 2 2 2 2 2 2 3 2 2 1 1 1 1 1
Wind_Direction
186 173 152 143 135 130 125 124 121 119 116 113 111 108 107 107 105 104 105 104 101 98 96 93 90 88 88 86 82 80 78 75 73 74 73 74 76 78 77 70 66 66 77
158 161 146 141 136 132 128 122 121 122 120 117 115 114 112 111 110 108 106 104 103 100 97 95 93 91 92 90 86 83 82 80 75 74 71 71 75 78 78 76 71 75 77
135 143 143 140 136 132 129 125 122 122 123 121 121 120 117 114 114 114 110 106 103 102 98 94 93 93 93 91 87 85 87 84 78 77 70 54 68 80 79 77 75 74 75
136 139 140 135 134 133 131 128 127 124 122 125 127 125 124 120 117 117 116 111 108 104 100 97 96 95 95 93 88 89 90 86 81 75 59 44 58 82 82 80 77 74 73
133 139 145 136 132 134 133 131 128 127 126 124 128 129 129 127 122 118 116 113 110 107 104 102 99 98 98 93 90 93 91 89 83 68 55 45 50 85 85 82 79 76 72
133 139 145 140 137 132 134 133 132 131 130 130 127 131 133 132 126 121 116 114 113 112 111 109 106 102 97 92 91 95 95 92 81 67 60 50 54 89 88 86 83 79 75
135 140 148 144 142 134 133 136 134 136 134 132 130 129 133 135 132 125 120 117 117 117 116 113 109 104 98 91 89 93 96 94 87 76 68 60 75 90 90 87 85 84 82
139 137 146 149 143 141 137 137 136 136 136 135 133 132 130 133 137 132 126 123 124 122 118 114 110 106 100 94 92 92 98 98 89 84 73 75 88 92 92 88 86 86 84
125 128 135 151 150 146 140 136 141 139 134 132 133 133 129 129 135 139 135 133 130 127 122 120 118 111 104 95 90 87 90 93 87 81 81 77 89 91 92 91 86 83 85
96 112 125 134 141 147 153 139 130 133 136 132 129 123 121 129 132 138 140 137 134 131 128 126 123 115 103 96 89 82 85 83 79 73 64 98 92 90 90 89 87 83 84
89 84 107 119 126 138 148 140 133 127 129 129 130 117 112 119 124 128 136 136 134 135 132 129 124 116 101 88 80 75 79 78 84 63 66 106 100 95 93 93 94 89 87
136 124 110 126 131 136 136 128 135 122 124 129 137 134 127 121 123 122 128 134 133 128 127 125 122 112 91 73 70 68 69 78 77 55 98 116 107 100 97 95 95 96 90
174 151 139 135 139 141 141 133 126 119 119 125 134 129 125 120 116 117 118 129 133 122 113 107 100 89 86 84 77 74 78 83 73 35 55 99 103 106 102 98 92 93 90
167 169 154 143 148 143 145 150 141 139 142 147 157 141 136 136 137 143 143 142 135 129 122 108 107 104 95 92 94 87 80 90 85 51 43 69 77 98 101 96 93 94 92
176 185 181 158 162 159 148 163 152 159 161 163 163 156 146 149 156 156 155 151 140 137 137 134 131 123 117 105 89 92 94 96 91 68 37 55 60 71 87 96 92 89 89
192 192 185 166 166 161 152 161 175 172 163 166 172 166 153 149 151 154 154 157 155 155 152 149 143 131 130 115 99 93 96 98 92 81 46 36 44 46 53 81 81 73 72
196 186 174 176 161 166 165 169 165 177 164 170 178 168 155 144 146 143 150 154 161 151 144 134 124 114 113 103 96 90 93 95 99 92 75 43 18 23 32 43 49 53 47
183 180 183 174 159 163 165 171 170 172 164 173 180 170 159 150 144 143 148 161 161 147 139 143 131 122 109 104 95 79 78 91 91 90 87 78 43 6 5 27 24 22 24
189 181 178 170 161 168 173 163 156 157 161 181 183 172 162 154 149 146 152 155 155 146 141 150 137 136 130 114 103 82 60 77 70 75 80 78 71 57 9 10 17 20 17
188 181 173 169 165 160 157 129 106 125 148 154 193 180 159 159 152 146 147 151 144 144 141 140 145 131 134 134 101 60 28 10 42 83 121 45 45 56 53 39 18 6 8
179 182 184 170 167 156 163 158 177 199 193 183 215 185 162 159 157 152 148 154 149 152 160 148 147 139 139 133 100 49 10 10 10 349 45 65 41 28 48 51 35 17 352
193 203 202 189 180 185 190 185 182 175 184 184 189 188 169 162 162 163 159 161 158 147 151 154 145 156 168 170 137 125 53 340 335 332 291 126 9 17 23 24 44 41 19
212 210 215 203 189 191 187 154 118 101 83 91 215 194 177 166 162 167 168 162 161 160 172 181 176 173 178 199 171 152 162 206 262 312 302 299 249 359 311 323 16 19 17
223 216 212 205 189 186 173 167 167 170 182 207 203 196 182 175 170 166 162 161 163 165 173 185 192 178 172 188 202 196 177 161 166 219 290 285 251 233 250 282 327 15 22
216 209 207 187 181 188 182 177 173 173 178 165 166 170 174 187 178 171 163 164 167 169 178 184 179 174 178 191 191 181 160 143 170 172 225 255 279 255 241 227 224 257 325
5 83 137 163 192 197 184 182 179 174 170 161 179 177 179 192 186 180 167 167 170 172 181 188 184 173 185 181 197 186 180 183 191 181 203 221 242 259 245 223 224 236 261